Location: Arborea
(39.7744°N, 8.5819°E)
Time: 14:57:10
(UTC+00:00)

ISS - Visible Passes

Search period start: 27 February 2024 00:00
Search period end: 08 March 2024 00:00
Orbit: 414 x 422 km, 51.6° (Epoch: 27 February)

Date Brightness Start Highest point End Pass type
(mag) Time Alt. Az. Time Alt. Az. Time Alt. Az.
27 Feb -1.1 05:08:26 10° NNW 05:09:44 12° N 05:11:02 10° NNE visible
28 Feb -1.0 04:21:04 11° N 04:21:35 11° N 04:22:41 10° NNE visible
29 Feb -1.2 05:09:12 10° NNW 05:11:18 15° NNE 05:13:25 10° NE visible
01 Mar -1.1 04:21:50 11° NNW 04:23:06 13° N 04:24:46 10° NE visible
02 Mar -0.6 03:35:44 11° NNE 03:35:44 11° NNE 03:36:06 10° NNE visible
02 Mar -1.8 05:09:39 10° NNW 05:12:32 25° NNE 05:15:25 10° E visible
03 Mar -1.4 04:22:35 14° NNW 04:24:20 19° NNE 04:26:50 10° ENE visible
04 Mar -0.9 03:36:31 15° NNE 03:36:31 15° NNE 03:38:06 10° NE visible
04 Mar -3.2 05:10:03 10° NW 05:13:22 57° NE 05:16:42 10° ESE visible
05 Mar -2.4 04:23:25 20° NNW 04:25:11 35° NNE 04:28:20 10° E visible
06 Mar -1.5 03:37:27 23° NE 03:37:27 23° NE 03:39:44 10° E visible
06 Mar -3.4 05:10:32 10° WNW 05:13:48 47° SW 05:17:03 10° SSE visible
07 Mar -3.9 04:24:33 40° NW 04:25:39 87° SW 04:29:01 10° SE visible
